#timestamp,LO_Frequency,Hit,StdDev 
1551942015.6,286046995.2,N
1551942035.4,286046994.9,N
1551942055.2,286046997.3,N
1551942075.1,286046999.6,N
1551942076.0,286046999.6,N
1551942095.8,286046999.5,N
1551942115.6,286046999.2,N
1551942135.5,286046998.9,N
1551942155.3,286046998.9,N
1551942175.2,286047011.9,Y
1551942195.9,286047001.0,P
1551942215.7,286046999.8,N
1551942235.6,286047001.2,N
1551942255.4,286046999.7,N
1551942275.3,286046998.5,N
1551942295.1,286047001.0,N
1551942296.0,286047001.0,N
1551942315.8,286047002.3,N
1551942335.7,286047000.4,N
1551942355.5,286047002.2,N
1551942375.3,286047002.4,N
1551942395.2,286047002.3,N
1551942415.0,286047000.0,N
1551942415.9,286047000.0,N
1551942435.8,286046998.1,N
1551942455.6,286046998.3,N
1551942475.4,286047000.4,N
1551942495.3,286047002.6,N
1551942515.1,286047000.5,N
1551942535.8,286047001.0,N
1551942555.7,286046996.5,N
1551942575.5,286046998.1,N
1551942595.4,286046999.9,N
1551942615.2,286046999.7,N
1551942635.0,286046999.7,N
1551942635.9,286046999.7,N
1551942655.8,286047002.6,N
1551942675.6,286047004.4,N
1551942695.5,286047001.4,N
1551942715.3,286047001.6,N
1551942735.1,286047001.7,N
1551942755.9,286047002.8,N
1551942775.7,286047000.1,N
1551942795.5,286047000.3,N
1551942815.4,286047001.3,N
1551942835.2,286047002.1,N
1551942855.1,286047000.1,N
1551942856.0,286047000.1,N
1551942875.8,286047000.9,N
1551942895.6,286046998.4,N
1551942915.5,286046999.3,N
1551942935.3,286046999.5,N
1551942955.2,286046997.1,N
1551942975.9,286046997.5,N
1551942995.7,286046999.2,N
1551943015.6,286047000.6,N
1551943035.4,286046999.7,N
1551943055.3,286047004.0,N
1551943075.1,286047003.6,N
1551943076.0,286047003.6,N
1551943095.8,286047003.8,N
1551943115.7,286047001.4,N
1551943135.5,286047004.3,N
1551943155.3,286047004.2,N
1551943175.2,286047003.4,N
1551943195.0,286047005.9,N
1551943195.9,286047005.9,N
1551943215.8,286047005.3,N
1551943235.6,286047004.8,N
1551943255.4,286047003.3,N
1551943275.3,286047003.0,N
1551943295.1,286047003.9,N
1551943315.9,286047003.9,N
1551943335.7,286047004.2,N
1551943355.5,286047002.4,N
1551943375.4,286046999.8,N
1551943395.2,286046999.7,N
1551943415.0,286046998.5,N
1551943415.9,286046998.5,N
1551943435.8,286046998.7,N
1551943455.6,286047000.8,N
1551943475.5,286047000.0,N
1551943495.3,286047002.1,N
1551943515.1,286047001.7,N
1551943535.9,286047002.7,N
1551943555.7,286047002.7,N
1551943575.5,286047002.0,N
1551943595.4,286047001.4,N
1551943615.2,286047001.5,N
1551943635.1,286047002.5,N
1551943636.0,286047002.5,N
1551943655.8,286047004.4,N
1551943675.6,286047003.7,N
1551943695.5,286047003.5,N
1551943715.3,286047005.8,N
1551943735.2,286047007.6,Y
1551943755.2,286047002.4,P
1551943775.0,286047001.7,P
1551943775.9,286047001.7,P
1551943795.8,286047004.2,Y
1551943815.6,286047000.9,P
1551943835.5,286046998.5,N
1551943855.3,286046996.8,N
1551943875.1,286046996.7,N
1551943895.9,286046996.9,N
1551943915.7,286046999.4,N
1551943935.5,286046999.3,N
1551943955.4,286046997.3,N
1551943975.2,286046997.3,N
1551943995.0,286046994.9,N
1551943996.0,286046994.9,N
1551944015.8,286046995.7,N
1551944035.6,286046995.8,N
1551944055.5,286046996.0,N
1551944075.3,286046995.7,N
1551944095.1,286046994.9,N
1551944115.9,286046995.6,N
1551944135.7,286046998.0,N
1551944155.6,286046995.6,N
1551944175.4,286046993.8,Y
1551944195.2,286046997.7,P
1551944215.1,286046995.6,P
1551944216.0,286046995.6,P
1551944235.8,286046996.5,Y
1551944255.7,286047004.1,P
1551944275.5,286047003.6,N
1551944295.3,286047003.5,N
1551944315.2,286047003.4,N
1551944335.0,286047005.6,N
1551944335.9,286047005.6,N
1551944355.8,286047005.6,N
1551944375.6,286047003.7,N
1551944395.4,286047005.2,N
1551944415.3,286047004.7,N
1551944435.1,286047007.0,N
1551944455.9,286047007.6,Y
1551944475.7,286047001.9,P
1551944495.5,286047001.3,N
1551944515.4,286047003.7,P
1551944535.2,286047001.6,N
1551944555.0,286047000.1,N
1551944555.9,286047000.1,N
1551944575.8,286046998.5,N
1551944595.6,286047000.6,N
1551944615.5,286047001.0,N
1551944635.3,286047000.9,N
1551944655.1,286046999.1,N
1551944675.9,286046999.2,N
1551944695.7,286046996.8,N
1551944715.5,286046999.4,N
1551944735.4,286046997.7,N
1551944755.2,286046995.1,N
1551944775.1,286046996.2,N
1551944776.0,286046996.2,N
1551944795.8,286046997.1,N
1551944815.6,286046999.2,N
1551944835.5,286046998.8,N
1551944855.3,286047002.4,N
1551944875.1,286047000.3,N
1551944895.9,286046999.9,N
1551944915.7,286046998.8,N
1551944935.6,286046997.0,N
1551944955.4,286046998.8,N
1551944975.2,286047000.8,N
1551944995.1,286046998.1,N
1551944996.0,286046998.1,N
1551945015.8,286047000.9,N
1551945035.7,286046999.9,N
1551945055.5,286047000.1,N
1551945075.3,286046998.1,N
1551945095.2,286047001.0,N
1551945115.9,286046999.9,N
1551945135.7,286047002.8,N
1551945155.6,286046998.8,N
1551945175.4,286046998.4,N
1551945195.3,286046999.8,N
1551945215.1,286047001.2,N
1551945216.0,286047001.2,N
1551945235.8,286046999.5,N
1551945255.7,286046998.2,N
1551945275.5,286046998.3,N
1551945295.3,286046997.0,N
1551945315.2,286046999.0,N
1551945335.0,286047000.3,N
1551945335.9,286047000.3,N
1551945355.8,286047002.6,N
1551945375.6,286047001.7,N
1551945395.4,286047001.9,N
1551945415.3,286047000.2,N
1551945435.1,286046998.7,N
1551945455.9,286046998.9,N
1551945475.7,286046998.8,N
1551945495.5,286046997.1,N
1551945515.4,286046997.1,N
1551945535.2,286046996.6,N
1551945555.0,286046998.9,N
1551945555.9,286046998.9,N
1551945575.8,286046998.7,N
1551945595.6,286047001.2,N
